#timestamp,LO_Frequency,Hit,StdDev 
1583507715.8,286046997.2,P
1583507735.6,286046995.9,P
1583507755.4,286046993.8,P
1583507775.3,286046994.7,Y
1583507795.1,286046997.2,P
1583507815.9,286046994.9,P
1583507835.7,286046995.4,P
1583507855.5,286046995.7,Y
1583507875.4,286046998.3,P
1583507895.2,286046999.1,N
1583507915.1,286047000.9,N
1583507916.0,286047000.9,N
1583507935.8,286047002.1,N
1583507955.6,286047004.2,N
1583507975.5,286047002.6,N
1583507995.3,286047002.8,N
1583508015.1,286046999.7,N
1583508035.9,286047001.6,N
1583508055.7,286047004.4,N
1583508075.6,286047003.9,N
1583508095.4,286047003.1,N
1583508115.2,286047003.5,N
1583508135.1,286047005.6,N
1583508136.0,286047005.6,N
1583508185.8,286047004.8,E
1583508195.8,286047005.6,N
1583508215.6,286047000.0,P
1583508235.4,286046999.6,N
1583508255.3,286046997.2,N
1583508275.1,286046995.5,N
1583508295.9,286046993.5,N
1583508315.7,286046993.9,N
1583508335.5,286046993.8,N
1583508355.4,286046992.1,N
1583508375.2,286046994.4,N
1583508395.0,286046994.4,N
1583508396.0,286046994.4,N
1583508415.8,286046991.8,N
1583508435.6,286046991.9,N
1583508455.5,286046991.7,N
1583508475.3,286046992.2,N
1583508495.1,286046992.0,N
1583508515.9,286046990.1,N
1583508535.7,286046993.0,N
1583508555.6,286046991.9,N
1583508575.4,286046992.4,N
1583508595.2,286046992.1,N
1583508615.1,286046993.8,N
1583508616.0,286046993.8,N
1583508635.8,286046996.3,N
1583508655.6,286046997.7,N
1583508675.5,286046996.7,N
1583508695.3,286046997.8,N
1583508715.2,286046995.2,N
1583508735.9,286046995.6,N
1583508755.7,286046994.9,N
1583508775.6,286046998.0,N
1583508795.4,286046995.6,N
1583508815.3,286046994.0,N
1583508835.1,286046994.6,N
1583508836.0,286046994.6,N
1583508855.8,286046991.8,Y
1583508875.7,286046998.6,P
1583508895.5,286046998.2,N
1583508915.4,286046998.1,N
1583508935.2,286046998.8,N
1583508955.0,286047002.3,N
1583508955.9,286047002.3,N
1583508975.8,286047002.3,N
1583508995.6,286047000.0,N
1583509015.4,286046999.8,N
1583509035.3,286047000.5,N
1583509055.1,286047000.8,N
1583509075.9,286046998.8,N
1583509095.7,286046998.6,N
1583509115.5,286046999.4,N
1583509135.4,286046999.2,N
1583509155.2,286046999.0,N
1583509175.0,286046999.4,N
1583509176.0,286046999.4,N
1583509195.8,286046999.6,N
1583509215.6,286046997.5,N
1583509235.5,286046999.6,N
1583509255.3,286046996.6,N
1583509275.1,286046996.6,N
1583509295.9,286046998.6,N
1583509315.7,286047002.2,N
1583509335.6,286047003.8,N
1583509355.4,286047003.0,N
1583509375.2,286047004.1,N
1583509395.1,286047003.9,N
1583509396.0,286047003.9,N
1583509415.8,286047002.6,N
1583509435.6,286047000.1,N
1583509455.5,286046998.6,N
1583509475.3,286047000.7,N
1583509495.2,286046996.5,N
1583509515.9,286046996.7,N
1583509535.7,286046997.8,N
1583509555.6,286046994.9,N
1583509575.4,286046995.2,N
1583509595.2,286046995.2,N
1583509615.1,286046995.9,N
1583509616.0,286046995.9,N
1583509635.8,286046993.5,N
1583509655.7,286046993.8,N
1583509675.5,286046994.3,N
1583509695.3,286046994.3,N
1583509715.2,286046994.4,N
1583509735.0,286046994.6,N
1583509735.9,286046994.6,N
1583509755.7,286046992.9,N
1583509775.6,286046991.9,N
1583509795.4,286046992.3,N
1583509815.3,286046992.0,N
1583509835.1,286046994.1,N
1583509836.0,286046994.1,N
1583509855.8,286046994.5,N
1583509875.7,286046994.6,N
1583509895.5,286046994.2,N
1583509915.3,286046993.9,N
1583509935.2,286046993.5,N
1583509955.0,286046993.8,N
1583509955.9,286046993.8,Y
1583509975.8,286047000.6,P
1583509995.6,286047000.8,N
1583510015.4,286047000.7,N
1583510035.3,286046998.2,N
1583510055.1,286047001.1,N
1583510075.8,286047000.9,N
1583510095.7,286047000.6,N
1583510115.5,286047002.7,N
1583510135.4,286046999.7,N
1583510155.2,286047002.8,N
1583510175.0,286046999.8,N
1583510175.9,286046999.8,N
1583510195.8,286046999.9,N
1583510215.6,286047000.2,N
1583510235.4,286047000.1,N
1583510255.3,286047002.0,N
1583510275.1,286047002.1,N
1583510295.9,286047004.3,N
1583510315.7,286047003.6,N
1583510335.5,286047005.9,N
1583510355.4,286047004.7,N
1583510375.2,286047006.6,N
1583510395.1,286047006.1,N
1583510396.0,286047006.1,N
